<< Return to Weather Page
Longview, TX
on Tuesday, May 8, 2012

Tuesday
Previous Day Next Day
Daily Summary
 ActualAverageRecord
Temperature
Mean Temperature - 71 °F  
Max Temperature 81 °F 82 °F 93 °F (2003)
Min Temperature 64 °F 60 °F 41 °F (1992)
Degree Days
Heating Degree Days 0 1  
Month to date heating degree days 0 8  
Since 1 July heating degree days 1665 2257  
Cooling Degree Days 8 7  
Month to date cooling degree days 103 46  
Year to date cooling degree days 406 169  
Growing Degree Days22 (Base - )  
Moisture
Dew Point 64 °F   
Average Humidity 76    
Maximum Humidity 93    
Minimum Humidity 58    
Precipitation
Precipitation 0.27 in 0.16 in 2.45 in (2014)
Month to date precipitation 1.23 1.31  
Year to date precipitation 16.02 16.24  
Snow
Snow 0.00 in - - ()
Month to date snowfall 0.0  
Since 1 July snowfall 0.0  
Snow Depth 0.00 in   
Wind
Wind Speed 5 mph   
Max Wind Speed 17 mph   
Max Gust Speed 20 mph   
Visibility 10 miles   
Events Rain   

Key: T is trace of precipitation, MM is missing value
Source: NWS Daily Summary
Time(CDT)TemperatureDew PointHumidity Pressure Visibility Wind DirectionWind SpeedGust SpeedPrecipitationEvents Conditions
12:53 AM 66.0 °F 63.0 °F 90% 29.97 in 5.0 miles South 11.5 mph - 0.15 in Rain Rain
1:53 AM 64.9 °F 63.0 °F 93% 29.99 in 4.0 miles South 4.6 mph - 0.13 in Rain Rain
2:53 AM 64.9 °F 62.1 °F 90% 29.88 in 10.0 miles South 12.7 mph - 0.11 in Rain Light Rain
3:53 AM 64.9 °F 63.0 °F 93% 29.94 in 10.0 miles NW 5.8 mph - 0.04 in   Clear
4:53 AM 64.0 °F 63.0 °F 96% 29.93 in 10.0 miles North 6.9 mph - N/A   Clear
5:53 AM 64.9 °F 63.0 °F 93% 29.87 in 10.0 miles Calm Calm - N/A   Clear
6:53 AM 64.9 °F 63.0 °F 93% 29.87 in 10.0 miles Variable 4.6 mph - N/A   Mostly Cloudy
7:53 AM 68.0 °F 63.0 °F 84% 29.88 in 10.0 miles NNE 4.6 mph - N/A   Clear
8:53 AM 71.1 °F 64.0 °F 78% 29.92 in 10.0 miles NNW 10.4 mph - N/A   Partly Cloudy
9:14 AM 71.6 °F 64.4 °F 78% 29.97 in 10.0 miles North 8.1 mph - N/A   Mostly Cloudy
9:53 AM 72.0 °F 64.0 °F 76% 29.96 in 10.0 miles North 6.9 mph - N/A   Mostly Cloudy
10:53 AM 73.0 °F 64.0 °F 73% 29.99 in 10.0 miles NNE 4.6 mph - N/A   Overcast
11:46 AM 75.2 °F 64.4 °F 69% 29.99 in 10.0 miles Variable 4.6 mph - N/A   Mostly Cloudy
11:53 AM 77.0 °F 64.9 °F 66% 29.98 in 10.0 miles NE 6.9 mph - N/A   Mostly Cloudy
12:53 PM 80.1 °F 64.9 °F 60% 29.96 in 10.0 miles NW 8.1 mph - N/A   Partly Cloudy
1:53 PM 79.0 °F 64.0 °F 60% 29.95 in 10.0 miles NW 5.8 mph - N/A   Scattered Clouds
2:53 PM 81.0 °F 64.9 °F 58% 29.93 in 10.0 miles Calm Calm - N/A   Mostly Cloudy
3:53 PM 80.1 °F 64.0 °F 58% 29.91 in 10.0 miles North 4.6 mph - N/A   Scattered Clouds
4:53 PM 79.0 °F 64.9 °F 62% 29.90 in 10.0 miles Calm Calm - N/A   Scattered Clouds
5:53 PM 75.9 °F 66.0 °F 71% 29.90 in 10.0 miles ENE 4.6 mph - N/A   Overcast
6:53 PM 72.0 °F 64.0 °F 76% 29.91 in 10.0 miles East 6.9 mph - N/A   Mostly Cloudy
7:53 PM 69.1 °F 62.1 °F 78% 29.93 in 10.0 miles Calm Calm - N/A   Overcast
8:53 PM 68.0 °F 64.9 °F 90% 29.94 in 10.0 miles ENE 3.5 mph - N/A   Overcast
9:53 PM 68.0 °F 64.9 °F 90% 29.96 in 10.0 miles NNW 4.6 mph - N/A   Overcast
10:53 PM 66.9 °F 64.0 °F 90% 29.98 in 10.0 miles NNW 5.8 mph - N/A   Overcast
11:53 PM 66.9 °F 64.9 °F 93% 29.98 in 10.0 miles NNW 5.8 mph - 0.00 in   Overcast

Astronomy

Sunrise: 06:25 AM (CDT) Moon Rise: 11:12 PM (CDT) 5 / 8
Sunset: 08:05 PM (CDT) Moon Set: 08:39 AM (CDT) 5 / 8
Moon Phase
May. 08 May. 12 May. 20 May. 28 Jun. 04

Powered by the Weather Underground, Inc.